COSMOS 2251 DEB

Satellite information

Favourite Embed

Satellite Type and Status

DEBRISIN ORBIT

Key statistics

Satellite COSMOS 2251 DEB at a glance.

Uptime

11869

Days in orbit

Revolutions

≈ 14.5

Per day

Orbit

LEO

Low Earth Orbit

Inclination

74.0

Latest

Satellite identification and parameters

Extended collection of information and parameters for COSMOS 2251 DEB.

Object identification

Identified? True

Debris? True

Object name: COSMOS 2251 DEB

International designator: 1993-036ABQ

Object number (NORAD): 34846

Object ID (CCSDS): 34846

Country: COMMONWEALTH OF INDEPENDENT STATES (CIS)

Current information (Y/N): Y

RCS size: SMALL

Orbital parameters

Period: 99.501 minutes

Inclination: 74.0309 deg

SMA: 7112.871 km

Apoapsis: 753.297 km

Periapsis: 716.174 km

RAAN: 260.3267 deg

Eccentricy: 0.00260962

Argument of periapsis: 326.6171 deg

Mean anomaly: 33.3341 deg

Mean motion: 14.47222822 rev/day

Mean motion (dot): 0.00003969 rev/day2

B* drag term: 0.001088392 1/REarth

Two-line elements (TLE)

Creation date: Dec. 14, 2025, 3:07 a.m.

Reference frame: TEME

Reference center: EARTH

Epoch: Dec. 13, 2025, 12:20 p.m. UTC

TLE line 0: 0 COSMOS 2251 DEB

TLE line 1: 1 34846U 93036ABQ 25347.51427034 .00003969 00000-0 10884-2 0 9993

TLE line 2: 2 34846 74.0309 260.3267 0026096 326.6171 33.3341 14.47222822874151

Live tracking on map

Real-time ground track for satellite COSMOS 2251 DEB.

In-orbit conjunctions

A list of the most updated potential collisions computed for object COSMOS 2251 DEB.

Target Orbit TCA Probability of collision Miss distance Type
COSMOS 2251 DEB LEO 2025-02-02 08:10:10 0.0003268757 130.0 (m) DEBRIS
RUBIN 3/SL-8 SSO 2024-07-28 14:39:16 0.0001241651 352.0 (m) PAYLOAD

Associated space launch

Military communications satellite. Destroyed in a collision with Iridium 33.

COSMOS 2251 DEB was lifted into orbit during the mission ‘Kosmos-3M | Strela-2M 51’, on board a Kosmos-3M space rocket.

The launch took place on June 16, 1993, 4:17 a.m. from 132/1 (132L).

For more information about the launch, click the button.

Launch to space Kosmos-3M | Strela-2M 51
Kosmos-3M | Strela-2M 51

Agency: N/A

Status: Launch Successful

Launch date: June 16, 1993, 4:17 a.m. UTC

Rocket: Kosmos-3M

Launch pad: 132/1 (132L)

Location: Plesetsk Cosmodrome, Russian Federation

...

Latest news about this satellite

There are no fresh news available about this satellite. Check back as we update our databases every day.


Newsletter sign-up

Weekly statistics, charts and insights to help you stay on top of the space industry.